• In Uzbekistan
  • List of Countries
  • For 7 days
  • Water Temperature
  • Weather Map
  • Weather Widgets
  • user-avatar
    Login

    Hourly Weather Lyubotin

    Today, 26 February, Wednesday

    Time Temperature Precipitation Wind Pressure Humidity
    00:00 -1°C° 0 mm 4 mps 743 mmHg 82%
    01:00 -1°C° 0 mm 4 mps 743 mmHg 83%
    02:00 -1°C° 0 mm 5 mps 742 mmHg 84%
    03:00 -1°C° 0 mm 5 mps 742 mmHg 88%
    04:00 -1°C° 0 mm 5 mps 741 mmHg 91%
    05:00 -1°C° 0 mm 5 mps 741 mmHg 94%
    06:00 -1°C° 0 mm 6 mps 741 mmHg 93%
    07:00 -1°C° 0 mm 6 mps 741 mmHg 92%
    08:00 -1°C° 0 mm 7 mps 740 mmHg 91%
    09:00 0°C° 0 mm 7 mps 740 mmHg 86%
    10:00 +2°C° 0 mm 7 mps 739 mmHg 81%
    11:00 +3°C° 0 mm 7 mps 739 mmHg 76%
    12:00 +4°C° 0 mm 7 mps 739 mmHg 73%
    13:00 +4°C° 0 mm 7 mps 738 mmHg 70%
    14:00 +5°C° 0 mm 7 mps 738 mmHg 67%
    15:00 +5°C° 0 mm 6 mps 738 mmHg 69%
    16:00 +5°C° 0 mm 6 mps 737 mmHg 72%
    17:00 +6°C° 0 mm 5 mps 737 mmHg 74%
    18:00 +5°C° 0 mm 5 mps 737 mmHg 76%
    19:00 +5°C° 0 mm 5 mps 737 mmHg 77%
    20:00 +5°C° 0 mm 5 mps 737 mmHg 79%
    21:00 +3°C° 0 mm 5 mps 737 mmHg 80%
    22:00 +3°C° 0 mm 5 mps 737 mmHg 81%
    23:00 +2°C° 0 mm 5 mps 737 mmHg 83%

    Tomorrow, 27 February, Thursday

    Time Temperature Precipitation Wind Pressure Humidity
    00:00 +2°C° 0 mm 5 mps 737 mmHg 84%
    01:00 +2°C° 0 mm 5 mps 737 mmHg 85%
    02:00 +3°C° 0 mm 4 mps 737 mmHg 86%
    03:00 +3°C° 0 mm 4 mps 736 mmHg 88%
    04:00 +1°C° 0 mm 4 mps 736 mmHg 89%
    05:00 +1°C° 0 mm 4 mps 736 mmHg 90%
    06:00 +1°C° 0 mm 5 mps 735 mmHg 89%
    07:00 +2°C° 0 mm 5 mps 735 mmHg 88%
    08:00 +2°C° 0 mm 5 mps 735 mmHg 88%
    09:00 +3°C° 0 mm 6 mps 735 mmHg 85%
    10:00 +4°C° 0 mm 6 mps 735 mmHg 83%
    11:00 +7°C° 0 mm 6 mps 734 mmHg 81%
    12:00 +7°C° 0 mm 6 mps 734 mmHg 82%
    13:00 +8°C° 0 mm 6 mps 734 mmHg 83%
    14:00 +8°C° 0 mm 6 mps 734 mmHg 84%
    15:00 +8°C° 0 mm 5 mps 734 mmHg 86%
    16:00 +8°C° 0 mm 4 mps 734 mmHg 88%
    17:00 +7°C° 0 mm 4 mps 734 mmHg 90%
    18:00 +8°C° 0.2 mm 3 mps 734 mmHg 91%
    19:00 +7°C° 0.2 mm 2 mps 735 mmHg 92%
    20:00 +7°C° 0.2 mm 2 mps 735 mmHg 93%
    21:00 +7°C° 0.1 mm 2 mps 734 mmHg 93%
    22:00 +6°C° 0.1 mm 2 mps 734 mmHg 92%
    23:00 +6°C° 0.1 mm 2 mps 734 mmHg 92%

    Day after tomorrow, 28 February, Friday

    Time Temperature Precipitation Wind Pressure Humidity
    00:00 +5°C° 0.2 mm 3 mps 734 mmHg 93%
    01:00 +7°C° 0.2 mm 3 mps 733 mmHg 94%
    02:00 +6°C° 0.2 mm 4 mps 733 mmHg 95%
    03:00 +5°C° 0.9 mm 5 mps 733 mmHg 93%
    04:00 +4°C° 0.9 mm 6 mps 733 mmHg 92%
    05:00 +4°C° 0.9 mm 7 mps 733 mmHg 90%
    06:00 +2°C° 0.2 mm 7 mps 733 mmHg 91%
    07:00 0°C° 0.2 mm 8 mps 734 mmHg 93%
    08:00 -1°C° 0.2 mm 8 mps 735 mmHg 94%
    09:00 0°C° 0.1 mm 7 mps 735 mmHg 91%
    10:00 0°C° 0.1 mm 7 mps 736 mmHg 88%
    11:00 +1°C° 0.1 mm 6 mps 737 mmHg 84%
    12:00 +2°C° 0 mm 6 mps 738 mmHg 76%
    13:00 +2°C° 0 mm 6 mps 739 mmHg 68%
    14:00 +3°C° 0 mm 5 mps 740 mmHg 60%
    15:00 +3°C° 0 mm 5 mps 740 mmHg 62%
    16:00 +3°C° 0 mm 4 mps 741 mmHg 63%
    17:00 +3°C° 0 mm 3 mps 741 mmHg 65%
    18:00 +2°C° 0 mm 3 mps 742 mmHg 68%
    19:00 +3°C° 0 mm 2 mps 742 mmHg 71%
    20:00 +2°C° 0 mm 2 mps 743 mmHg 74%
    21:00 +2°C° 0 mm 2 mps 743 mmHg 74%
    22:00 +1°C° 0 mm 2 mps 743 mmHg 74%
    23:00 +1°C° 0 mm 2 mps 743 mmHg 74%

    29 February, Saturday

    Time Temperature Precipitation Wind Pressure Humidity
    00:00 +1°C° 0 mm 2 mps 742 mmHg 74%
    01:00 +1°C° 0 mm 2 mps 742 mmHg 74%
    02:00 0°C° 0 mm 3 mps 742 mmHg 74%
    03:00 0°C° 0 mm 3 mps 742 mmHg 76%
    04:00 0°C° 0 mm 3 mps 742 mmHg 77%
    05:00 0°C° 0 mm 3 mps 741 mmHg 78%
    06:00 0°C° 0 mm 3 mps 741 mmHg 79%
    07:00 0°C° 0 mm 3 mps 741 mmHg 79%
    08:00 +1°C° 0 mm 3 mps 741 mmHg 80%
    09:00 +1°C° 0.1 mm 4 mps 740 mmHg 78%
    10:00 +1°C° 0.1 mm 4 mps 740 mmHg 77%
    11:00 +3°C° 0.1 mm 4 mps 740 mmHg 75%
    12:00 +1°C° 0.6 mm 4 mps 740 mmHg 82%
    13:00 +1°C° 0.6 mm 4 mps 739 mmHg 88%
    14:00 +1°C° 0.6 mm 3 mps 739 mmHg 95%
    15:00 +1°C° 0.5 mm 3 mps 739 mmHg 95%
    16:00 +2°C° 0.5 mm 2 mps 739 mmHg 96%
    17:00 +2°C° 0.5 mm 2 mps 739 mmHg 96%
    18:00 +2°C° 0.2 mm 2 mps 740 mmHg 96%
    19:00 +1°C° 0.2 mm 3 mps 741 mmHg 96%
    20:00 0°C° 0.2 mm 4 mps 741 mmHg 96%
    21:00 0°C° 0.1 mm 5 mps 742 mmHg 95%
    22:00 -1°C° 0.1 mm 6 mps 742 mmHg 94%
    23:00 -2°C° 0.1 mm 6 mps 742 mmHg 92%

    1 March, Sunday

    Time Temperature Precipitation Wind Pressure Humidity
    00:00 -2°C° 0 mm 6 mps 743 mmHg 90%
    01:00 -2°C° 0 mm 6 mps 744 mmHg 88%
    02:00 -2°C° 0 mm 6 mps 744 mmHg 86%
    03:00 -2°C° 0 mm 5 mps 745 mmHg 86%
    04:00 -2°C° 0 mm 5 mps 746 mmHg 87%
    05:00 -3°C° 0 mm 4 mps 746 mmHg 88%
    06:00 -2°C° 0 mm 4 mps 747 mmHg 85%
    07:00 -2°C° 0 mm 4 mps 747 mmHg 82%
    08:00 -2°C° 0 mm 4 mps 748 mmHg 79%
    09:00 -1°C° 0 mm 4 mps 748 mmHg 74%
    10:00 +1°C° 0 mm 3 mps 749 mmHg 69%
    11:00 +2°C° 0 mm 3 mps 749 mmHg 64%
    12:00 +3°C° 0 mm 3 mps 749 mmHg 61%
    13:00 +4°C° 0 mm 3 mps 748 mmHg 58%
    14:00 +4°C° 0 mm 4 mps 748 mmHg 55%
    15:00 +4°C° 0 mm 3 mps 748 mmHg 57%
    16:00 +4°C° 0 mm 3 mps 748 mmHg 60%
    17:00 +3°C° 0 mm 3 mps 748 mmHg 63%
    18:00 +3°C° 0 mm 3 mps 748 mmHg 65%
    19:00 +1°C° 0 mm 4 mps 747 mmHg 67%
    20:00 +1°C° 0 mm 4 mps 747 mmHg 70%
    21:00 +1°C° 0 mm 5 mps 747 mmHg 71%
    22:00 +1°C° 0 mm 5 mps 747 mmHg 71%
    23:00 +1°C° 0 mm 6 mps 747 mmHg 72%

    2 March, Monday

    Time Temperature Precipitation Wind Pressure Humidity
    00:00 +1°C° 0 mm 6 mps 747 mmHg 72%
    01:00 +1°C° 0 mm 6 mps 747 mmHg 72%
    02:00 +1°C° 0 mm 6 mps 746 mmHg 71%
    03:00 +1°C° 0 mm 6 mps 746 mmHg 72%
    04:00 +1°C° 0 mm 6 mps 746 mmHg 74%
    05:00 +1°C° 0 mm 6 mps 746 mmHg 75%
    06:00 +1°C° 0 mm 6 mps 745 mmHg 75%
    07:00 +2°C° 0 mm 6 mps 745 mmHg 75%
    08:00 +2°C° 0 mm 7 mps 745 mmHg 75%
    09:00 +2°C° 0.1 mm 7 mps 745 mmHg 75%
    10:00 +3°C° 0.1 mm 7 mps 745 mmHg 76%
    11:00 +3°C° 0.1 mm 7 mps 745 mmHg 76%
    12:00 +3°C° 0.3 mm 6 mps 744 mmHg 78%
    13:00 +3°C° 0.3 mm 6 mps 744 mmHg 80%
    14:00 +4°C° 0.3 mm 6 mps 744 mmHg 81%
    15:00 +3°C° 0.4 mm 5 mps 744 mmHg 83%
    16:00 +3°C° 0.4 mm 5 mps 744 mmHg 86%
    17:00 +3°C° 0.4 mm 5 mps 744 mmHg 88%
    18:00 +3°C° 0.3 mm 5 mps 744 mmHg 89%
    19:00 +3°C° 0.3 mm 5 mps 744 mmHg 91%
    20:00 +3°C° 0.3 mm 5 mps 744 mmHg 93%
    21:00 +3°C° 0.1 mm 5 mps 744 mmHg 93%
    22:00 +4°C° 0.1 mm 4 mps 744 mmHg 93%
    23:00 +4°C° 0.1 mm 4 mps 744 mmHg 93%
    Show more